Simultaneous Nadir Overpasses (SNOs) Predictions

Prediction of SNOs near US between AQUA and NPP Satellite Orbit:

Table of predicted SNOs near US for the next 10.0 days since TLE Epoch: 7/5/2015
Index Date (AQUA) Time (AQUA) AQUA Lat,Lon Date (NPP) Time (NPP) NPP Lat,Lon Distance(km) Time Diff (sec)
1 07/06/2015 06:56:45 20.05, -77.21 07/06/2015 06:48:53 19.98, -76.72 51.92 472
2 07/06/2015 08:32:57 29.75, -99.56 07/06/2015 08:27:36 29.75, -99.58 2.02 321
3 07/06/2015 10:09:03 39.77,-121.44 07/06/2015 10:06:12 39.89,-121.92 42.84 171
4 07/09/2015 07:19:20 49.90, -76.07 07/09/2015 07:24:34 50.35, -78.24 163.15 314
5 07/09/2015 08:58:13 49.90,-100.79 07/09/2015 09:06:02 50.45,-103.57 207.64 469
6 07/11/2015 18:17:27 49.96, -80.21 07/11/2015 18:14:48 49.69, -81.73 112.85 159
7 07/11/2015 19:56:20
